Showing default

COSMOS 2447 (GLONASS), 33466

Orbit data source: Space-Track

COSMOS 2447 (GLONASS), 33466 is a Commonwealth of Independent States-origin payload satellite in MEO that was launched on Thu, 25 Dec 2008 UTC via a PROTON-M/DM-2 launch vehicle from the Tyuratam Missile And Space Complex (TTMTR). Payload-class satellites include a variety of spacecraft equipped with specific instruments for various scientific and technological missions. These include communications satellites like Starlink; space stations such as the ISS; scientific satellites like the Hubble; Earth observation satellites from companies like Planet Labs, Umbra, and HawkEye 360; GPS; miniature CubeSats for education and research; and military/defense satellites.

Loading next visibility...
Identifier
33466, 2008-067A
Orbit
MEO
Last TLE update
8 hours ago
Origin
Manufacturer
Resehetnev ISS
Mission
Non-operational Defense Navigation
Bus & Motor
URAGAN, Unknown motor
Mass
1,450 kg wet, ~1,200 kg dry
Launch date (UTC)
2008-12-25 (17 years ago)
Launch vehicle
PROTON-M/DM-2
Launch site
Tyuratam Missile And Space Complex (TTMTR)
Object type
Payload
Rocket body
Debris
Shape & HBR
Cyl + 1 Ant + 2 Pan, 7.8 m
Radar Cross Section
8.467 m², Large (>1 m²)

Expand to show TLE details & history

TLE from 8 hours ago
0 COSMOS 2447 (GLONASS)
1 33466U 08067A   25182.04697685 -.00000040  00000-0  00000+0 0  9990
2 33466  64.6078  81.4412 0006227 262.9229 285.1775  2.13107638128337
Epoch: 2025-07-01T01:07Z
TLE epoch observation values (Epoch: 2025-07-01T01:07:38.799Z)
Latitude
-7.28045°
Longitude
-31.33788°
Altitude
19,127.105 km
Speed
3.954 km/s
True Right ascension
17h 39m 41s
True Declination
-7° 16' 06"
Sunlit
Object was in daylight at epoch
Visualization orbit readout
Latitude
60.92069°
Longitude
-156.44612°
Altitude
19,154.861 km
Speed
3.951 km/s
Apparent Right ascension
09h 05m 15s
Apparent Declination
46° 35' 37"
Sunlit
Object is in daylight
Visualization observer readout
Local Sidereal Time
20:29:41
Azimuth
353.892° N
Elevation
-3.126°
Doppler factor
1
Orbital elements
Apogee altitude
19,144.949 km
Perigee altitude
19,113.183 km
Semi-major axis
25,507.203 km
Eccentricity
0.00062
Inclination
64.6078°
RAAN
81.4412°
Arg. of periapsis
262.9229°
True anomaly
Unknown
Mean anomaly
285.1775°
Eccentric anomaly
Unknown
Mean motion
0.53278 °/min
Orbital period
675.7 mins
BSTAR
0
Loading maneuver chart data...
Loading SW <> Apogee altitude chart data...
Loading historical data...
Loading historical data...
Loading historical data...
Loading historical data...
Loading historical data...
Loading historical data...
Loading historical data...

COSMOS 2447 (GLONASS) Visibility forecast

Observer location: undefined°, undefined°

Span
Click to sort rows by Start time (UTC) header in descending order
Start Az.
Max El. time (UTC)
Max El. Az.
Max El.
End time (UTC)
End Az.
300 mins2025-07-01 16:52:29.772Z179.664° S2025-07-01 19:10:29.772Z95.454° ESE44.981°2025-07-01 21:52:29.772Z53.678° ENE
58 mins2025-07-02 07:53:29.772Z335.575° NNW2025-07-02 08:51:29.772Z309.233° NW19.741°2025-07-02 08:51:29.772Z309.233° NW
|